DW5071 Weather Reports


Display with metric or nautical units.
time (UTC)temp
F
wind
direction
speed
MPH
gust
MPH
rain 1hr
in
rain 24hr
in
rain mn
in
humidity
%
barometer
mb
20260507192518 93 304 1.0 4.0 0.00 0.00 0.00 9 1011.3
20260507192018 92 163 1.0 2.0 0.00 0.00 0.00 9 1011.4
20260507191518 92 238 2.0 4.0 0.00 0.00 0.00 9 1011.4
20260507191038 92 226 1.0 4.0 0.00 0.00 0.00 9 1011.5
20260507190518 91 172 1.0 4.0 0.00 0.00 0.00 9 1011.5
20260507190018 92 272 2.0 7.0 0.00 0.00 0.00 9 1011.6
20260507185518 91 347 2.0 7.0 0.00 0.00 0.00 9 1011.7
20260507185018 90 292 2.0 7.0 0.00 0.00 0.00 10 1011.7
20260507184558 90 255 2.0 7.0 0.00 0.00 0.00 10 1011.8
20260507184037 90 254 2.0 5.0 0.00 0.00 0.00 11 1011.9
20260507183518 90 246 2.0 5.0 0.00 0.00 0.00 11 1012.0
20260507183015 90 213 1.0 3.0 0.00 0.00 0.00 12 1012.0
20260507182515 89 235 1.0 5.0 0.00 0.00 0.00 12 1012.1
20260507182015 89 188 1.0 2.0 0.00 0.00 0.00 12 1012.2
20260507181515 89 241 2.0 4.0 0.00 0.00 0.00 12 1012.3
20260507181015 89 318 2.0 5.0 0.00 0.00 0.00 12 1012.4
20260507180515 88 311 1.0 5.0 0.00 0.00 0.00 12 1012.5
20260507180015 87 275 2.0 5.0 0.00 0.00 0.00 13 1012.5
20260507175515 88 254 2.0 4.0 0.00 0.00 0.00 13 1012.6
20260507175015 88 267 2.0 4.0 0.00 0.00 0.00 13 1012.6
20260507174515 87 306 2.0 4.0 0.00 0.00 0.00 15 1012.6
20260507174015 87 192 1.0 2.0 0.00 0.00 0.00 15 1012.6
20260507173515 87 241 1.0 3.0 0.00 0.00 0.00 15 1012.7
20260507173105 86 273 1.0 3.0 0.00 0.00 0.00 17 1012.8
20260507172515 86 205 1.0 3.0 0.00 0.00 0.00 17 1012.8
20260507172035 86 91 1.0 3.0 0.00 0.00 0.00 18 1012.8
20260507171515 85 105 1.0 4.0 0.00 0.00 0.00 19 1012.9
20260507171015 85 70 1.0 4.0 0.00 0.00 0.00 19 1012.9
20260507170515 85 97 1.0 3.0 0.00 0.00 0.00 20 1013.0
20260507170015 85 359 1.0 2.0 0.00 0.00 0.00 21 1013.1
20260507165516 84 332 1.0 2.0 0.00 0.00 0.00 21 1013.1
20260507165015 83 251 1.0 3.0 0.00 0.00 0.00 20 1013.2
20260507164515 82 255 1.0 3.0 0.00 0.00 0.00 22 1013.2
20260507164015 82 259 1.0 4.0 0.00 0.00 0.00 22 1013.2
20260507163515 82 237 1.0 3.0 0.00 0.00 0.00 23 1013.2
20260507163015 82 238 1.0 3.0 0.00 0.00 0.00 23 1013.3
20260507162516 81 249 1.0 3.0 0.00 0.00 0.00 24 1013.3
20260507162045 81 211 1.0 3.0 0.00 0.00 0.00 26 1013.3
20260507161515 81 222 1.0 3.0 0.00 0.00 0.00 27 1013.4
20260507161015 79 186 1.0 2.0 0.00 0.00 0.00 28 1013.4
20260507160515 79 163 1.0 3.0 0.00 0.00 0.00 29 1013.4
20260507160015 78 189 1.0 2.0 0.00 0.00 0.00 29 1013.4
20260507155535 78 229 0.0 2.0 0.00 0.00 0.00 28 1013.5
20260507155015 78 255 1.0 3.0 0.00 0.00 0.00 28 1013.5
20260507154515 78 255 0.0 2.0 0.00 0.00 0.00 28 1013.5
20260507154016 77 255 1.0 3.0 0.00 0.00 0.00 29 1013.5
20260507153515 77 255 0.0 3.0 0.00 0.00 0.00 29 1013.4
20260507153015 77 255 2.0 3.0 0.00 0.00 0.00 29 1013.5
20260507152515 77 255 1.0 2.0 0.00 0.00 0.00 30 1013.4
20260507152015 76 255 0.0 2.0 0.00 0.00 0.00 31 1013.4
20260507151515 77 254 1.0 3.0 0.00 0.00 0.00 30 1013.5
20260507151015 76 255 0.0 1.0 0.00 0.00 0.00 31 1013.5
20260507150515 75 255 0.0 2.0 0.00 0.00 0.00 32 1013.5
20260507150015 74 255 0.0 2.0 0.00 0.00 0.00 33 1013.5
20260507145515 73 255 1.0 2.0 0.00 0.00 0.00 34 1013.5
20260507145015 73 255 1.0 2.0 0.00 0.00 0.00 33 1013.5
20260507144515 72 255 1.0 2.0 0.00 0.00 0.00 35 1013.5
20260507144015 72 257 1.0 3.0 0.00 0.00 0.00 35 1013.5
20260507143521 72 250 2.0 3.0 0.00 0.00 0.00 35 1013.5
20260507143035 72 259 2.0 4.0 0.00 0.00 0.00 34 1013.4
20260507142515 72 249 2.0 4.0 0.00 0.00 0.00 34 1013.4
20260507142015 72 269 1.0 4.0 0.00 0.00 0.00 34 1013.3
20260507141515 72 233 2.0 4.0 0.00 0.00 0.00 34 1013.3
20260507141015 72 150 1.0 2.0 0.00 0.00 0.00 34 1013.3
20260507140516 71 150 0.0 2.0 0.00 0.00 0.00 34 1013.3
20260507140015 70 149 0.0 1.0 0.00 0.00 0.00 35 1013.3
20260507135555 70 0.0 1.0 0.00 0.00 0.00 35 1013.3
20260507135015 70 149 0.0 1.0 0.00 0.00 0.00 35 1013.2
20260507134515 70 0.0 1.0 0.00 0.00 0.00 37 1013.1
20260507134015 68 149 0.0 1.0 0.00 0.00 0.00 39 1013.1
20260507133515 67 0.0 1.0 0.00 0.00 0.00 40 1013.1
20260507133015 65 149 0.0 1.0 0.00 0.00 0.00 42 1013.0
20260507132515 64 0.0 1.0 0.00 0.00 0.00 43 1013.0
20260507132035 63 149 0.0 1.0 0.00 0.00 0.00 42 1013.0
20260507131515 63 149 0.0 0.0 0.00 0.00 0.00 40 1013.0
20260507131015 63 149 0.0 0.0 0.00 0.00 0.00 39 1012.9
20260507130515 64 0.0 1.0 0.00 0.00 0.00 39 1012.9
20260507130015 63 149 0.0 1.0 0.00 0.00 0.00 39 1012.9
20260507125535 63 147 1.0 2.0 0.00 0.00 0.00 39 1012.8
20260507125035 63 142 0.0 1.0 0.00 0.00 0.00 39 1012.9
20260507124515 63 140 0.0 1.0 0.00 0.00 0.00 38 1012.8
20260507124015 63 139 0.0 2.0 0.00 0.00 0.00 38 1012.7
20260507123515 63 139 0.0 2.0 0.00 0.00 0.00 38 1012.6
20260507123016 63 139 0.0 1.0 0.00 0.00 0.00 39 1012.7
20260507122515 62 139 0.0 1.0 0.00 0.00 0.00 39 1012.6
20260507122015 62 139 0.0 2.0 0.00 0.00 0.00 40 1012.7
20260507121515 62 136 0.0 1.0 0.00 0.00 0.00 41 1012.6
20260507121015 61 136 0.0 1.0 0.00 0.00 0.00 42 1012.6
20260507120515 61 94 0.0 1.0 0.00 0.00 0.00 43 1012.7
20260507120015 61 0.0 0.0 0.00 0.00 0.00 42 1012.7
20260507115515 61 0.0 0.0 0.00 0.00 0.00 41 1012.8
20260507115015 61 0.0 0.0 0.00 0.00 0.00 41 1012.8
20260507114535 62 0.0 0.0 0.00 0.00 0.00 41 1012.8
20260507114015 62 0.0 0.0 0.00 0.00 0.00 40 1012.8
20260507113535 62 0.0 0.0 0.00 0.00 0.00 40 1012.7
20260507113016 63 0.0 0.0 0.00 0.00 0.00 39 1012.7
20260507112515 63 0.0 0.0 0.00 0.00 0.00 39 1012.7
20260507112015 63 0.0 1.0 0.00 0.00 0.00 39 1012.6
20260507111515 63 91 0.0 1.0 0.00 0.00 0.00 39 1012.6
20260507111015 63 91 0.0 1.0 0.00 0.00 0.00 40 1012.6
20260507110515 63 91 0.0 1.0 0.00 0.00 0.00 41 1012.7
20260507110056 62 88 0.0 1.0 0.00 0.00 0.00 42 1012.7
20260507105515 62 0.0 0.0 0.00 0.00 0.00 42 1012.7
20260507105015 63 0.0 0.0 0.00 0.00 0.00 42 1012.7
20260507104515 63 0.0 0.0 0.00 0.00 0.00 42 1012.7
20260507104016 63 0.0 1.0 0.00 0.00 0.00 42 1012.7
20260507103515 63 86 0.0 1.0 0.00 0.00 0.00 42 1012.7
20260507103015 63 86 0.0 1.0 0.00 0.00 0.00 43 1012.7
20260507102515 63 0.0 0.0 0.00 0.00 0.00 42 1012.8
20260507102035 63 0.0 0.0 0.00 0.00 0.00 43 1012.8
20260507101535 63 0.0 0.0 0.00 0.00 0.00 43 1012.9
20260507101015 62 0.0 0.0 0.00 0.00 0.00 43 1012.9
20260507100515 62 0.0 0.0 0.00 0.00 0.00 43 1013.0
20260507100015 63 0.0 0.0 0.00 0.00 0.00 43 1013.1
20260507095515 63 0.0 0.0 0.00 0.00 0.00 43 1013.2
20260507095015 63 0.0 0.0 0.00 0.00 0.00 43 1013.2
20260507094515 63 0.0 0.0 0.00 0.00 0.00 42 1013.3
20260507094015 64 0.0 0.0 0.00 0.00 0.00 41 1013.3
20260507093515 64 0.0 0.0 0.00 0.00 0.00 40 1013.3
20260507093015 64 0.0 0.0 0.00 0.00 0.00 40 1013.4
20260507092515 65 0.0 0.0 0.00 0.00 0.00 39 1013.3
20260507092035 65 0.0 0.0 0.00 0.00 0.00 39 1013.4
20260507091515 65 0.0 0.0 0.00 0.00 0.00 39 1013.3
20260507091015 65 0.0 0.0 0.00 0.00 0.00 39 1013.4
20260507090518 65 0.0 0.0 0.00 0.00 0.00 38 1013.4
20260507090057 65 0.0 0.0 0.00 0.00 0.00 38 1013.4
20260507085517 66 0.0 0.0 0.00 0.00 0.00 38 1013.4
20260507085018 66 0.0 1.0 0.00 0.00 0.00 37 1013.5
20260507084538 66 86 0.0 1.0 0.00 0.00 0.00 38 1013.5
20260507084017 65 86 0.0 1.0 0.00 0.00 0.00 38 1013.5
20260507083517 65 0.0 0.0 0.00 0.00 0.00 38 1013.5
20260507083038 65 0.0 0.0 0.00 0.00 0.00 39 1013.6
20260507082537 66 0.0 0.0 0.00 0.00 0.00 39 1013.6
20260507082018 66 86 0.0 1.0 0.00 0.00 0.00 39 1013.6
20260507081538 66 0.0 0.0 0.00 0.00 0.00 39 1013.6
20260507081017 66 86 0.0 1.0 0.00 0.00 0.00 40 1013.6
20260507080537 66 0.0 1.0 0.00 0.00 0.00 40 1013.6
20260507080017 66 86 0.0 1.0 0.00 0.00 0.00 40 1013.7
20260507075517 66 0.0 0.0 0.00 0.00 0.00 40 1013.7
20260507075017 66 0.0 0.0 0.00 0.00 0.00 40 1013.8
20260507074518 66 0.0 0.0 0.00 0.00 0.00 39 1013.8
20260507074038 66 0.0 0.0 0.00 0.00 0.00 39 1013.7
20260507073517 66 0.0 0.0 0.00 0.00 0.00 39 1013.7
20260507073037 66 0.0 0.0 0.00 0.00 0.00 38 1013.7
20260507072517 67 0.0 0.0 0.00 0.00 0.00 38 1013.7
20260507072018 67 0.0 0.0 0.00 0.00 0.00 37 1013.8
20260507071518 67 0.0 0.0 0.00 0.00 0.00 37 1013.8
20260507071017 67 0.0 0.0 0.00 0.00 0.00 36 1013.8
20260507070517 68 0.0 0.0 0.00 0.00 0.00 35 1013.7
20260507070017 68 0.0 0.0 0.00 0.00 0.00 34 1013.8
20260507065518 68 0.0 0.0 0.00 0.00 0.00 34 1013.8
20260507065018 69 0.0 0.0 0.00 0.00 0.00 34 1013.6
20260507064518 69 0.0 0.0 0.00 0.00 0.00 34 1013.6
20260507064018 68 0.0 0.0 0.00 0.00 0.00 34 1013.6
20260507063517 68 86 0.0 1.0 0.00 0.00 0.00 34 1013.5
20260507063018 68 0.0 1.0 0.00 0.00 0.00 34 1013.5
20260507062517 68 86 0.0 1.0 0.00 0.00 0.00 34 1013.5
20260507062038 68 86 0.0 1.0 0.00 0.00 0.00 35 1013.6
20260507061518 68 86 0.0 1.0 0.00 0.00 0.00 34 1013.6
20260507061017 68 0.0 0.0 0.00 0.00 0.00 34 1013.6
20260507060518 69 0.0 0.0 0.00 0.00 0.00 35 1013.5
20260507060018 69 0.0 0.0 0.00 0.00 0.00 36 1013.5
20260507055518 69 0.0 0.0 0.00 0.00 0.00 36 1013.5
20260507055018 69 0.0 0.0 0.00 0.00 0.00 34 1013.5
20260507054518 69 0.0 0.0 0.00 0.00 0.00 34 1013.5
20260507054017 70 0.0 0.0 0.00 0.00 0.00 33 1013.5
20260507053517 70 0.0 0.0 0.00 0.00 0.00 32 1013.5
20260507053017 70 0.0 0.0 0.00 0.00 0.00 32 1013.5
20260507052518 70 0.0 0.0 0.00 0.00 0.00 31 1013.5
20260507052017 71 0.0 0.0 0.00 0.00 0.00 31 1013.5
20260507051538 71 0.0 0.0 0.00 0.00 0.00 30 1013.5
20260507051017 71 0.0 0.0 0.00 0.00 0.00 30 1013.4
20260507050557 71 0.0 0.0 0.00 0.00 0.00 30 1013.4
20260507050017 71 0.0 0.0 0.00 0.00 0.00 30 1013.3
20260507045558 71 0.0 0.0 0.00 0.00 0.00 29 1013.3
20260507045017 72 0.0 0.0 0.00 0.00 0.00 28 1013.3
20260507044518 72 0.0 0.0 0.00 0.00 0.00 28 1013.4
20260507044017 72 0.0 0.0 0.00 0.00 0.00 27 1013.3
20260507043518 73 0.0 0.0 0.00 0.00 0.00 27 1013.3
20260507043017 73 0.0 0.0 0.00 0.00 0.00 27 1013.2
20260507042517 74 0.0 0.0 0.00 0.00 0.00 26 1013.1
20260507042017 74 0.0 0.0 0.00 0.00 0.00 25 1013.1
20260507041518 74 0.0 0.0 0.00 0.00 0.00 25 1013.0
20260507041038 75 0.0 0.0 0.00 0.00 0.00 24 1012.9
20260507040518 75 0.0 0.0 0.00 0.00 0.00 24 1012.8
20260507040017 75 0.0 0.0 0.00 0.00 0.00 23 1012.8
20260507035517 75 0.0 0.0 0.00 0.00 0.00 23 1012.7
20260507035018 75 0.0 0.0 0.00 0.00 0.00 24 1012.7
20260507034518 75 0.0 0.0 0.00 0.00 0.00 23 1012.6
20260507034037 76 86 0.0 1.0 0.00 0.00 0.00 23 1012.6
20260507033517 76 86 0.0 1.0 0.00 0.00 0.00 23 1012.5
20260507033038 76 0.0 0.0 0.00 0.00 0.00 22 1012.5
20260507032517 76 0.0 1.0 0.00 0.00 0.00 22 1012.4
20260507032017 76 86 0.0 1.0 0.00 0.00 0.00 22 1012.4
20260507031518 76 86 0.0 1.0 0.00 0.00 0.00 22 1012.4
20260507031017 76 86 0.0 1.0 0.00 0.00 0.00 22 1012.3
20260507030518 77 0.0 0.0 0.00 0.00 0.00 22 1012.2
20260507030037 77 0.0 1.0 0.00 0.00 0.00 21 1012.2
20260507025538 78 86 0.0 2.0 0.00 0.00 0.00 21 1012.1
20260507025017 78 0.0 1.0 0.00 0.00 0.00 21 1012.1
20260507024518 78 86 0.0 2.0 0.00 0.00 0.00 20 1012.0
20260507024018 79 86 0.0 3.0 0.00 0.00 0.00 20 1012.0
20260507023518 79 118 0.0 1.0 0.00 0.00 0.00 20 1011.9
20260507023017 79 118 0.0 1.0 0.00 0.00 0.00 20 1011.8
20260507022518 80 119 0.0 1.0 0.00 0.00 0.00 19 1011.8
20260507022037 80 117 0.0 2.0 0.00 0.00 0.00 19 1011.7
20260507021518 80 84 1.0 3.0 0.00 0.00 0.00 19 1011.6
20260507021018 80 85 1.0 2.0 0.00 0.00 0.00 19 1011.7
20260507020557 80 77 1.0 2.0 0.00 0.00 0.00 19 1011.6
20260507020017 81 78 1.0 3.0 0.00 0.00 0.00 19 1011.6
20260507015537 81 125 1.0 3.0 0.00 0.00 0.00 19 1011.6
20260507015018 81 127 0.0 1.0 0.00 0.00 0.00 19 1011.6
20260507014517 81 0.0 1.0 0.00 0.00 0.00 19 1011.6
20260507014018 81 127 0.0 1.0 0.00 0.00 0.00 19 1011.6
20260507013517 82 0.0 4.0 0.00 0.00 0.00 18 1011.6
20260507013017 82 129 0.0 4.0 0.00 0.00 0.00 18 1011.6
20260507012518 83 313 0.0 1.0 0.00 0.00 0.00 18 1011.6
20260507012037 84 327 1.0 3.0 0.00 0.00 0.00 17 1011.6
20260507011518 84 78 1.0 3.0 0.00 0.00 0.00 17 1011.6
20260507011018 85 90 2.0 5.0 0.00 0.00 0.00 17 1011.6
20260507010518 86 96 2.0 4.0 0.00 0.00 0.00 16 1011.6
20260507010018 86 129 1.0 2.0 0.00 0.00 0.00 16 1011.6
20260507005517 86 139 1.0 2.0 0.00 0.00 0.00 16 1011.6
20260507005038 86 150 0.0 1.0 0.00 0.00 0.00 16 1011.6
20260507004517 86 148 1.0 4.0 0.00 0.00 0.00 16 1011.6
20260507004018 86 123 1.0 5.0 0.00 0.00 0.00 16 1011.6
20260507003518 86 80 1.0 3.0 0.00 0.00 0.00 16 1011.6
20260507003037 86 61 1.0 3.0 0.00 0.00 0.00 16 1011.5
20260507002518 85 69 1.0 4.0 0.00 0.00 0.00 17 1011.5
20260507002057 85 117 2.0 4.0 0.00 0.00 0.00 17 1011.5
20260507001518 85 130 1.0 4.0 0.00 0.00 0.00 17 1011.5
20260507001018 86 91 2.0 5.0 0.00 0.00 0.00 16 1011.5
20260507000518 86 100 1.0 5.0 0.00 0.00 0.00 16 1011.5
20260507000018 86 86 1.0 4.0 0.00 0.00 0.00 17 1011.5
20260506235517 85 88 2.0 8.0 0.00 0.00 0.00 17 1011.6
20260506235017 86 92 3.0 8.0 0.00 0.00 0.00 17 1011.6
20260506234518 86 94 2.0 7.0 0.00 0.00 0.00 17 1011.6
20260506234017 85 111 2.0 10.0 0.00 0.00 0.00 17 1011.6
20260506233518 85 105 3.0 10.0 0.00 0.00 0.00 17 1011.6
20260506233017 85 223 3.0 6.0 0.00 0.00 0.00 17 1011.6
20260506232517 85 84 1.0 4.0 0.00 0.00 0.00 17 1011.7
20260506232057 85 128 2.0 4.0 0.00 0.00 0.00 17 1011.7
20260506231518 85 106 1.0 6.0 0.00 0.00 0.00 17 1011.8
20260506231038 86 101 2.0 7.0 0.00 0.00 0.00 17 1011.9
20260506230518 86 113 2.0 7.0 0.00 0.00 0.00 17 1012.0
20260506230018 86 146 1.0 4.0 0.00 0.00 0.00 17 1012.1
20260506225517 85 245 2.0 5.0 0.00 0.00 0.00 17 1012.1
20260506225018 85 156 2.0 5.0 0.00 0.00 0.00 17 1012.2
20260506224517 85 69 2.0 6.0 0.00 0.00 0.00 17 1012.2
20260506224037 85 102 2.0 6.0 0.00 0.00 0.00 17 1012.3
20260506223518 85 90 2.0 5.0 0.00 0.00 0.00 17 1012.3
20260506223018 85 107 2.0 5.0 0.00 0.00 0.00 18 1012.4
20260506222517 85 100 3.0 5.0 0.00 0.00 0.00 18 1012.4
20260506222017 84 250 1.0 4.0 0.00 0.00 0.00 18 1012.4
20260506221517 83 245 2.0 4.0 0.00 0.00 0.00 18 1012.5
20260506221018 84 134 2.0 4.0 0.00 0.00 0.00 18 1012.6
20260506220517 84 107 2.0 4.0 0.00 0.00 0.00 18 1012.7
20260506220018 84 122 2.0 5.0 0.00 0.00 0.00 18 1012.8
20260506215517 84 104 2.0 5.0 0.00 0.00 0.00 18 1012.8
20260506215018 85 89 2.0 4.0 0.00 0.00 0.00 17 1012.8
20260506214517 85 155 2.0 4.0 0.00 0.00 0.00 18 1013.0
20260506214017 85 204 1.0 4.0 0.00 0.00 0.00 18 1013.0
20260506213557 84 139 1.0 3.0 0.00 0.00 0.00 18 1013.2
20260506213018 84 198 1.0 3.0 0.00 0.00 0.00 18 1013.3
20260506212537 83 159 1.0 5.0 0.00 0.00 0.00 19 1013.3
20260506212038 83 82 3.0 8.0 0.00 0.00 0.00 18 1013.4
20260506211537 83 84 3.0 8.0 0.00 0.00 0.00 19 1013.5
20260506211017 83 113 3.0 6.0 0.00 0.00 0.00 19 1013.6
20260506210517 83 196 2.0 4.0 0.00 0.00 0.00 20 1013.7
20260506210019 83 201 1.0 6.0 0.00 0.00 0.00 19 1013.7
20260506205517 83 92 2.0 6.0 0.00 0.00 0.00 19 1013.8
20260506205018 83 124 2.0 5.0 0.00 0.00 0.00 20 1013.8
20260506204537 83 152 1.0 5.0 0.00 0.00 0.00 20 1013.9
20260506204037 83 119 2.0 5.0 0.00 0.00 0.00 20 1014.0
20260506203518 83 128 2.0 5.0 0.00 0.00 0.00 20 1014.0
20260506203017 83 82 1.0 4.0 0.00 0.00 0.00 20 1014.1
20260506202518 83 29 2.0 5.0 0.00 0.00 0.00 21 1014.1
20260506202018 82 359 2.0 5.0 0.00 0.00 0.00 22 1014.2
20260506201518 81 125 1.0 3.0 0.00 0.00 0.00 22 1014.3
20260506201018 81 161 1.0 4.0 0.00 0.00 0.00 22 1014.4
20260506200518 81 131 2.0 5.0 0.00 0.00 0.00 21 1014.4
20260506200038 82 105 2.0 5.0 0.00 0.00 0.00 22 1014.4
20260506195518 81 178 1.0 4.0 0.00 0.00 0.00 22 1014.5
20260506195017 80 107 2.0 6.0 0.00 0.00 0.00 22 1014.5
20260506194538 80 103 2.0 8.0 0.00 0.00 0.00 22 1014.5
20260506194017 80 140 2.0 8.0 0.00 0.00 0.00 22 1014.6
20260506193538 81 124 3.0 12.0 0.00 0.00 0.00 22 1014.6
20260506193018 82 111 2.0 12.0 0.00 0.00 0.00 21 1014.7